User: anonymous   Login
Location: Unspecified
(0.0000°N, 0.0000°E)
Time: 06:34:30
(UTC+02:00)
Language:

Iridium 4 Rocket - Orbit

View from above orbital plane
View from above orbital plane
View from above satellite
View from above satellite

Ground track
Ground track

The orbit data is extracted from the following two-line orbital elements,

1 24797U 97020F   15090.48843123  .00001228  00000-0  25795-3 0  9999
2 24797 086.8915 289.4167 0228338 132.5772 289.6692 14.43537222941265
Epoch (UTC): 31 March 2015 11:43:20
Eccentricity: 0.0228338
inclination: 86.8915°
perigee height: 584 km
apogee height: 909 km
right ascension of ascending node: 289.4167°
argument of perigee: 132.5772°
revolutions per day: 14.43537222
mean anomaly at epoch: 289.6692°
orbit number at epoch: 94126

The dashed part of the orbit path shows where the satellite is in the earth's shadow,  

DLR